星链-5404 (STARLINK-5404 )

导读

STARLINK-5404是美国SpaceX公司星链(Starlink)星座中的一颗低轨通信卫星,于2022年12月17日发射升空。星链星座旨在为全球提供宽带互联网服务,STARLINK-5404采用平板设计搭配太阳电池阵,搭载Ku/Ka波段通信载荷,配备氪工质霍尔推进器,具备自主避撞能力,设计寿命约5-7年,退役后将脱轨坠入大气层焚毁。

基本信息
目录编号:
54769
目录名称:
STARLINK-5404
国际标识:
2022-175M
轨道中心:
EARTH
卫星名称:
星链-5404
卫星全名:
星链-5404 (STARLINK-5404 )
卫星状态:
已陨落 最后检测时间 2025-01-04
发射日期:
2022-12-17 UTC
国别 :
美国 (US)
星等 :
--
该卫星已列入 空间交会检测服务 Space Conjunction Data Service (SCDS) ,当前飞行风险评估等级: 无高风险
轨道信息
数据来源 国际轨道数据
星历时间: 2025-01-04T08:49:47+0800
轨道信息已过期616天
半长轴: 6537.2km
偏心率: 0.0004162
轨道倾角: 53.199°
近地点辐角 314.234°
升交点赤经 150.837°
平近点角 63.300°
近地点: 156.344km
远地点: 161.786km
周期: 87.669分钟
每日圈数: 16.425369
详细信息
固有亮度:
5
最大亮度:
2.5
卫星平台:
Starlink v1.5
覆盖范围:
全球
运营商:
太空探索技术公司
运营商所在国:
美国
制造商(研发单位):
太空探索技术公司
制造商所在国:
美国
使用方式:
暂无
卫星简介
星链(Starlink)计划是由太空探索技术公司(SpaceX)提出的一个巨型低轨卫星互联网星座项目,计划在2019年至2024年间在太空搭建由约1.2万颗卫星组成的“星链”网络,其中1584颗将部署在地球上空550千米处的近地轨道,并从2020年开始工作。该卫星仍在工作。
与全量物体交会距离演化趋势
与全量物体交会风险概率演化趋势